This demonstration page uses our WeatherBlox Daily Observations layout. Learn more.

Left ArrowRight Arrow

41.86663, -103.66717

Hourly Observations for August 29, 2018

Temp ( °F °C ) Dew Point ( °F °C ) Humidity (%) Winds ( mph kmh ) Pressure ( in mb ) Visibility ( mi km ) Precip ( " mm )
12:53 am 00:53 Clear 52 11.1 50 10 93 93 SE 5 7 30.06 1018 10 16 0.00 0.00
1:53 am 01:53 Clear 51 10.6 49 9.4 92 92 ESE 7 11 30.06 1018 10 16 0.00 0.00
2:53 am 02:53 Clear 50 10 49 9.4 96 96 E 9 15 30.06 1018 10 16 0.00 0.00
3:53 am 03:53 Clear 50 10 49 9.4 96 96 E 8 13 30.05 1018 10 16 0.00 0.00
4:53 am 04:53 Clear 49 9.4 49 9.4 100 100 E 7 11 30.05 1018 10 16 0.00 0.00
5:53 am 05:53 Clear 50 10 49 9.4 96 96 E 9 15 30.06 1018 10 16 0.00 0.00
6:53 am 06:53 Sunny 51 10.6 50 10 96 96 E 10 17 30.06 1018 10 16 0.00 0.00
7:53 am 07:53 Sunny 55 12.8 52 11.1 90 90 ESE 13 20 30.06 1018 10 16 0.00 0.00
8:53 am 08:53 Sunny 61 16.1 54 12.2 78 78 E 10 17 30.04 1017 10 16 0.00 0.00
9:53 am 09:53 Sunny 69 20.6 56 13.3 63 63 SE 9 15 30.01 1016 10 16 0.00 0.00
10:53 am 10:53 Sunny 77 25 57 13.9 50 50 S 9 15 29.98 1015 10 16 0.00 0.00
11:53 am 11:53 Sunny 80 26.7 59 15 49 49 E 9 15 29.95 1014 10 16 0.00 0.00
12:53 pm 12:53 Sunny 83 28.3 58 14.4 43 43 VRB 5 7 29.92 1013 10 16 0.00 0.00
1:53 pm 13:53 Sunny 86 30 58 14.4 39 39 E 13 20 29.90 1012 10 16 0.00 0.00
2:53 pm 14:53 Sunny 88 31.1 56 13.3 34 34 ENE 8 13 29.87 1012 10 16 0.00 0.00
3:53 pm 15:53 Sunny 89 31.7 55 12.8 31 31 SSE 9 15 29.85 1011 10 16 0.00 0.00
4:53 pm 16:53 Sunny 88 31.1 53 11.7 30 30 SSE 13 20 29.83 1010 10 16 0.00 0.00
5:53 pm 17:53 Sunny 82 27.8 58 14.4 44 44 SE 17 28 29.85 1011 10 16 0.00 0.00
6:53 pm 18:53 Sunny 78 25.6 60 15.6 54 54 SE 10 17 29.87 1012 10 16 0.00 0.00
7:53 pm 19:53 Clear 72 22.2 59 15 64 64 SE 10 17 29.89 1012 10 16 0.00 0.00
8:53 pm 20:53 Clear 68 20 59 15 73 73 E 9 15 29.91 1013 10 16 0.00 0.00
9:53 pm 21:53 Clear 65 18.3 58 14.4 78 78 E 9 15 29.91 1013 10 16 0.00 0.00
10:53 pm 22:53 Clear 64 17.8 58 14.4 81 81 E 12 19 29.88 1012 10 16 0.00 0.00
11:53 pm 23:53 Clear 62 16.7 59 15 90 90 ESE 12 19 29.88 1012 10 16 0.00 0.00

Powered by AerisWeather